TimeCDT,TemperatureF,Dew PointF,Humidity,Sea Level PressureIn,VisibilityMPH,Wind Direction,Wind SpeedMPH,Gust SpeedMPH,PrecipitationIn,Events,Conditions,WindDirDegrees,DateUTC
12:51 AM,77.0,72.0,84,29.88,10.0,SSE,5.8,-,N/A,,Partly Cloudy,150,2013-10-04 05:51:00
1:51 AM,75.9,72.0,87,29.88,10.0,SSE,4.6,-,N/A,,Partly Cloudy,150,2013-10-04 06:51:00
2:51 AM,75.9,72.0,87,29.87,10.0,SE,4.6,-,N/A,,Partly Cloudy,140,2013-10-04 07:51:00
3:51 AM,75.9,72.0,87,29.86,10.0,Calm,Calm,-,N/A,,Scattered Clouds,0,2013-10-04 08:51:00
4:51 AM,73.9,71.1,91,29.86,10.0,SW,3.5,-,N/A,,Partly Cloudy,230,2013-10-04 09:51:00
5:51 AM,75.0,72.0,90,29.86,10.0,South,3.5,-,N/A,,Scattered Clouds,170,2013-10-04 10:51:00
6:51 AM,75.0,72.0,90,29.88,10.0,Calm,Calm,-,N/A,,Partly Cloudy,0,2013-10-04 11:51:00
7:51 AM,75.9,72.0,87,29.88,10.0,SSE,3.5,-,N/A,,Partly Cloudy,160,2013-10-04 12:51:00
8:51 AM,80.1,73.9,81,29.89,10.0,SSE,3.5,-,N/A,,Partly Cloudy,150,2013-10-04 13:51:00
9:51 AM,84.9,73.0,67,29.90,10.0,South,12.7,-,N/A,,Scattered Clouds,180,2013-10-04 14:51:00
10:51 AM,89.1,72.0,57,29.90,10.0,South,11.5,-,N/A,,Scattered Clouds,170,2013-10-04 15:51:00
11:51 AM,90.0,71.1,54,29.90,10.0,South,9.2,21.9,N/A,,Scattered Clouds,180,2013-10-04 16:51:00
12:51 PM,93.0,71.1,49,29.88,10.0,SSE,17.3,23.0,N/A,,Scattered Clouds,160,2013-10-04 17:51:00
1:51 PM,91.9,73.0,54,29.86,10.0,SE,18.4,-,N/A,,Scattered Clouds,140,2013-10-04 18:51:00
2:51 PM,91.9,72.0,52,29.85,10.0,SE,19.6,-,N/A,,Scattered Clouds,140,2013-10-04 19:51:00
3:51 PM,91.9,72.0,52,29.84,10.0,SE,17.3,-,N/A,,Scattered Clouds,140,2013-10-04 20:51:00
4:51 PM,91.0,72.0,53,29.84,10.0,SE,16.1,26.5,N/A,,Partly Cloudy,130,2013-10-04 21:51:00
5:51 PM,88.0,72.0,59,29.84,10.0,SE,20.7,-,N/A,,Partly Cloudy,140,2013-10-04 22:51:00
6:51 PM,84.9,72.0,65,29.85,10.0,SE,15.0,-,N/A,,Partly Cloudy,130,2013-10-04 23:51:00
7:51 PM,82.0,73.0,74,29.86,10.0,SE,15.0,-,N/A,,Partly Cloudy,130,2013-10-05 00:51:00
8:51 PM,81.0,73.0,77,29.87,10.0,SE,11.5,-,N/A,,Partly Cloudy,140,2013-10-05 01:51:00
9:51 PM,80.1,73.0,79,29.89,10.0,SE,10.4,-,N/A,,Partly Cloudy,140,2013-10-05 02:51:00
10:51 PM,79.0,73.0,82,29.90,10.0,SE,8.1,-,N/A,,Partly Cloudy,140,2013-10-05 03:51:00
11:51 PM,78.1,73.0,84,29.89,10.0,SE,5.8,-,N/A,,Partly Cloudy,140,2013-10-05 04:51:00